DW3637 Weather Reports


time (UTC)temp
C
wind
direction
speed
KPH
gust
KPH
rain 1hr
cm
rain 24hr
cm
rain mn
cm
humidity
%
barometer
mb
20260504173516 21 248 6.4 14.5 0.00 0.00 0.00 31 1007.4
20260504172516 21 248 9.7 22.5 0.00 0.00 0.00 31 1007.5
20260504171516 21 315 8.0 17.7 0.00 0.00 0.00 30 1007.7
20260504170517 21 270 6.4 17.7 0.00 0.00 0.00 31 1007.7
20260504150522 18 248 11.3 25.7 0.00 0.00 0.00 35 1009.3
20260504140516 17 293 6.4 17.7 0.00 0.00 0.00 38 1009.8
20260504130515 14 248 3.2 8.0 0.00 0.00 0.00 47 1010.2
20260504110517 7 248 3.2 9.7 0.00 0.00 0.00 66 1011.0
20260504100517 5 225 1.6 3.2 0.00 0.00 0.00 76 1010.6
20260504081519 5 0.0 0.0 0.00 0.00 0.00 75 1010.3
20260504080517 5 0.0 0.0 0.00 0.00 0.00 74 1010.4
20260504050517 4 0.0 0.0 0.00 0.00 0.00 74 1010.5
20260504045544 4 0.0 0.0 0.00 0.00 0.00 74 1010.5
20260504044516 4 0.0 0.0 0.00 0.00 0.00 73 1010.6
20260504043517 4 0.0 0.0 0.00 0.00 0.00 72 1010.6
20260504042516 4 0.0 0.0 0.00 0.00 0.00 71 1010.6
20260504041517 5 0.0 0.0 0.00 0.00 0.00 71 1010.5
20260504040537 5 0.0 0.0 0.00 0.00 0.00 70 1010.5
20260504035523 5 0.0 0.0 0.00 0.00 0.00 68 1010.5
20260504034518 5 0.0 0.0 0.00 0.00 0.00 67 1010.4
20260504033518 5 0.0 0.0 0.00 0.00 0.00 66 1010.3
20260504032517 5 0.0 0.0 0.00 0.00 0.00 65 1010.2
20260504031538 5 0.0 0.0 0.00 0.00 0.00 65 1010.1
20260504030518 5 0.0 0.0 0.00 0.00 0.00 64 1010.1
20260504025517 5 0.0 1.6 0.00 0.00 0.00 63 1010.1
20260504024537 5 0.0 0.0 0.00 0.00 0.00 62 1010.2
20260504023518 5 0.0 0.0 0.00 0.00 0.00 62 1010.1
20260504022518 6 0.0 0.0 0.00 0.00 0.00 60 1010.1
20260504021517 6 0.0 0.0 0.00 0.00 0.00 58 1010.0
20260504020518 6 0.0 0.0 0.00 0.00 0.00 58 1009.9
20260504015519 6 0.0 0.0 0.00 0.00 0.00 57 1009.8
20260504014517 7 0.0 0.0 0.00 0.00 0.00 54 1009.8
20260504013518 7 0.0 0.0 0.00 0.00 0.00 51 1009.7
20260504012517 7 0.0 1.6 0.00 0.00 0.00 51 1009.6
20260504011517 7 270 1.6 9.7 0.00 0.00 0.00 49 1009.5
20260504010517 8 0.0 0.0 0.00 0.00 0.00 50 1009.3
20260504005517 8 0.0 0.0 0.00 0.00 0.00 46 1009.2
20260504004517 10 0.0 0.0 0.00 0.00 0.00 41 1009.0
20260504003518 10 0.0 0.0 0.00 0.00 0.00 36 1008.9
20260504002517 11 45 1.6 8.0 0.00 0.00 0.00 35 1008.7
20260504001517 11 0.0 1.6 0.00 0.00 0.00 35 1008.6
20260504000517 11 0.0 1.6 0.00 0.00 0.00 35 1008.4
20260503235517 11 0.0 3.2 0.00 0.00 0.00 35 1008.3
20260503234617 12 315 1.6 8.0 0.00 0.00 0.00 35 1008.3
20260503233517 12 338 1.6 9.7 0.00 0.00 0.00 34 1008.2
20260503232517 12 0.0 3.2 0.00 0.00 0.00 34 1008.0
20260503231517 13 0 1.6 4.8 0.00 0.00 0.00 34 1008.0
20260503230516 13 338 1.6 4.8 0.00 0.00 0.00 33 1008.0
20260503225518 13 0 1.6 8.0 0.00 0.00 0.00 34 1008.0
20260503224517 13 45 3.2 8.0 0.00 0.00 0.00 34 1007.9
20260503223517 13 23 3.2 8.0 0.00 0.00 0.00 34 1007.9
20260503222539 13 23 3.2 14.5 0.00 0.00 0.00 33 1008.0
20260503221517 13 23 4.8 14.5 0.00 0.00 0.00 34 1008.0
20260503220516 13 23 4.8 17.7 0.00 0.00 0.00 35 1007.9
20260503215516 13 45 3.2 14.5 0.00 0.00 0.00 34 1007.9
20260503214516 13 23 3.2 11.3 0.00 0.00 0.00 36 1008.0
20260503213516 12 23 6.4 14.5 0.00 0.00 0.00 38 1008.0
20260503212517 12 315 4.8 17.7 0.00 0.00 0.00 37 1008.1
20260503211516 12 23 6.4 17.7 0.00 0.00 0.00 37 1008.0
20260503210516 12 45 6.4 22.5 0.00 0.00 0.00 37 1007.9
20260503205517 13 23 6.4 16.1 0.00 0.00 0.00 37 1007.9
20260503204518 13 23 6.4 12.9 0.00 0.00 0.00 38 1007.8
20260503203516 12 293 8.0 24.1 0.00 0.00 0.00 39 1007.8
20260503202516 12 23 6.4 22.5 0.00 0.00 0.00 39 1007.8
20260503201525 12 45 4.8 11.3 0.00 0.00 0.00 38 1007.8
20260503200516 12 293 8.0 20.9 0.00 0.00 0.00 38 1007.4
20260503195516 12 23 4.8 14.5 0.00 0.00 0.00 38 1007.6
20260503194516 12 338 8.0 20.9 0.00 0.00 0.00 40 1007.6
20260503193516 12 293 8.0 24.1 0.00 0.00 0.00 38 1007.7
20260503192536 12 315 4.8 14.5 0.00 0.00 0.00 39 1007.7
20260503191517 12 23 4.8 11.3 0.00 0.00 0.00 40 1007.6
20260503190516 11 293 8.0 17.7 0.00 0.00 0.00 41 1007.6
20260503185516 12 23 6.4 17.7 0.00 0.00 0.00 39 1007.8
20260503184516 12 23 4.8 12.9 0.00 0.00 0.00 41 1007.7
20260503183516 12 338 4.8 16.1 0.00 0.00 0.00 40 1007.8
20260503182536 12 23 3.2 11.3 0.00 0.00 0.00 40 1007.6
20260503181516 11 45 6.4 19.3 0.00 0.00 0.00 41 1007.8
20260503180517 13 23 6.4 16.1 0.00 0.00 0.00 41 1007.8
20260503175518 12 23 6.4 22.5 0.00 0.03 0.00 41 1007.6
20260503174516 12 23 6.4 17.7 0.00 0.05 0.00 43 1007.7